TimeEST,TemperatureF,Dew PointF,Humidity,Sea Level PressureIn,VisibilityMPH,Wind Direction,Wind SpeedMPH,Gust SpeedMPH,PrecipitationIn,Events,Conditions,WindDirDegrees,DateUTC
12:53 AM,68.0,66.0,93,30.11,2.0,Calm,Calm,-,N/A,,Clear,0,2012-11-04 04:53:00
1:15 AM,66.2,66.2,100,30.11,2.0,Calm,Calm,-,N/A,,Clear,0,2012-11-04 05:15:00
1:18 AM,66.2,64.4,94,30.11,2.0,Calm,Calm,-,N/A,,Clear,0,2012-11-04 05:18:00
1:53 AM,64.9,64.0,97,30.11,1.5,Calm,Calm,-,N/A,,Clear,0,2012-11-04 05:53:00
1:05 AM,66.2,64.4,94,30.11,1.5,Calm,Calm,-,N/A,,Scattered Clouds,0,2012-11-04 06:05:00
1:14 AM,66.2,64.4,94,30.11,1.0,Calm,Calm,-,N/A,,Mostly Cloudy,0,2012-11-04 06:14:00
1:53 AM,64.9,63.0,93,30.11,1.0,Calm,Calm,-,N/A,,Overcast,0,2012-11-04 06:53:00
1:55 AM,64.4,62.6,94,30.10,0.2,Calm,Calm,-,N/A,Fog,Fog,0,2012-11-04 06:55:00
2:03 AM,64.4,64.4,100,30.10,0.2,Calm,Calm,-,N/A,Fog,Fog,0,2012-11-04 07:03:00
2:24 AM,66.2,64.4,94,30.10,0.2,Calm,Calm,-,N/A,Fog,Fog,0,2012-11-04 07:24:00
2:33 AM,66.2,64.4,94,30.10,0.2,Calm,Calm,-,N/A,Fog,Fog,0,2012-11-04 07:33:00
2:53 AM,66.0,66.0,100,30.10,0.2,Calm,Calm,-,N/A,Fog,Fog,0,2012-11-04 07:53:00
3:43 AM,66.2,66.2,100,30.10,0.2,NE,3.5,-,N/A,Fog,Fog,40,2012-11-04 08:43:00
3:53 AM,66.0,66.0,100,30.10,0.2,Calm,Calm,-,N/A,Fog,Fog,0,2012-11-04 08:53:00
4:53 AM,66.0,64.9,96,30.10,0.2,Calm,Calm,-,N/A,Fog,Fog,0,2012-11-04 09:53:00
5:00 AM,66.2,66.2,100,30.10,0.2,NE,3.5,-,N/A,Fog,Fog,40,2012-11-04 10:00:00
5:09 AM,66.2,66.2,100,30.10,0.2,NE,3.5,-,N/A,Fog,Fog,50,2012-11-04 10:09:00
5:53 AM,66.0,64.9,96,30.12,0.2,NE,3.5,-,N/A,Fog,Fog,40,2012-11-04 10:53:00
6:53 AM,64.9,64.9,100,30.12,0.2,Calm,Calm,-,N/A,Fog,Fog,0,2012-11-04 11:53:00
7:53 AM,66.0,64.9,96,30.14,0.1,North,3.5,-,N/A,Fog,Fog,350,2012-11-04 12:53:00
8:26 AM,66.2,66.2,100,30.14,0.2,Calm,Calm,-,N/A,Fog,Fog,0,2012-11-04 13:26:00
8:35 AM,66.2,66.2,100,30.14,0.5,Calm,Calm,-,N/A,Fog,Fog,0,2012-11-04 13:35:00
8:53 AM,66.9,66.0,97,30.14,0.5,North,3.5,-,N/A,Fog,Fog,350,2012-11-04 13:53:00
9:05 AM,66.2,66.2,100,30.14,0.5,Calm,Calm,-,N/A,,Overcast,0,2012-11-04 14:05:00
9:09 AM,66.2,66.2,100,30.13,0.5,Calm,Calm,-,N/A,,Overcast,0,2012-11-04 14:09:00
9:34 AM,69.8,66.2,88,30.13,1.0,Calm,Calm,-,N/A,,Overcast,0,2012-11-04 14:34:00
9:50 AM,69.8,66.2,88,30.13,2.0,Calm,Calm,-,N/A,,Mostly Cloudy,0,2012-11-04 14:50:00
9:53 AM,70.0,64.9,84,30.13,2.0,East,3.5,-,N/A,,Haze,90,2012-11-04 14:53:00
10:06 AM,71.6,66.2,83,30.13,6.0,Calm,Calm,-,N/A,,Mostly Cloudy,0,2012-11-04 15:06:00
10:53 AM,72.0,66.0,81,30.12,8.0,WSW,5.8,-,N/A,,Mostly Cloudy,240,2012-11-04 15:53:00
11:53 AM,72.0,66.0,81,30.10,8.0,WSW,6.9,-,N/A,,Scattered Clouds,240,2012-11-04 16:53:00
12:53 PM,75.0,61.0,62,30.08,10.0,WSW,6.9,-,N/A,,Mostly Cloudy,240,2012-11-04 17:53:00
1:53 PM,78.1,55.9,46,30.05,10.0,Variable,3.5,-,N/A,,Mostly Cloudy,0,2012-11-04 18:53:00
2:53 PM,75.9,59.0,56,30.03,10.0,Calm,Calm,-,N/A,,Overcast,0,2012-11-04 19:53:00
3:53 PM,75.9,61.0,60,30.02,10.0,SSW,5.8,-,N/A,,Mostly Cloudy,210,2012-11-04 20:53:00
4:53 PM,73.9,61.0,64,30.02,10.0,SW,4.6,-,N/A,,Mostly Cloudy,230,2012-11-04 21:53:00
5:53 PM,73.0,61.0,66,30.03,10.0,WNW,4.6,-,N/A,,Mostly Cloudy,290,2012-11-04 22:53:00
6:53 PM,70.0,64.0,81,30.04,10.0,West,4.6,-,N/A,,Mostly Cloudy,280,2012-11-04 23:53:00
7:53 PM,68.0,64.9,90,30.05,7.0,WNW,3.5,-,N/A,,Mostly Cloudy,300,2012-11-05 00:53:00
8:53 PM,69.1,66.0,90,30.05,5.0,West,5.8,-,N/A,,Mostly Cloudy,260,2012-11-05 01:53:00
9:10 PM,66.2,66.2,100,30.06,2.0,West,6.9,-,N/A,,Mostly Cloudy,260,2012-11-05 02:10:00
9:19 PM,66.2,66.2,100,30.05,0.5,West,5.8,-,N/A,,Mostly Cloudy,260,2012-11-05 02:19:00
9:35 PM,66.2,66.2,100,30.05,0.5,West,4.6,-,N/A,Fog,Fog,270,2012-11-05 02:35:00
9:53 PM,66.9,66.9,100,30.04,0.5,WSW,3.5,-,N/A,Fog,Fog,250,2012-11-05 02:53:00
10:15 PM,68.0,66.2,94,30.04,0.5,Calm,Calm,-,N/A,,Mostly Cloudy,0,2012-11-05 03:15:00
10:44 PM,69.8,66.2,88,30.03,5.0,SW,4.6,-,N/A,,Mostly Cloudy,220,2012-11-05 03:44:00
10:53 PM,69.1,66.9,93,30.04,5.0,SW,4.6,-,N/A,,Mostly Cloudy,230,2012-11-05 03:53:00